Regional Weather Roundup
Issued by NWS

Home | Current Version | Previous Version | Text Only | Print | Product List | Glossary Off
Versions: 1 2 3 4 5 6 7 8 9 10 11 12 13 14 15 16 17 18 19 20 21 22 23 24 25 26 27 28 29 30 31 32 33 34 35 36 37 38 39 40 41 42 43 44 45 46 47 48 49 50

000
ASUS45 KBOU 020107
RWRCO

WEATHER ROUNDUP FOR COLORADO
NATIONAL WEATHER SERVICE DENVER/BOULDER CO
700 PM MDT MON SEP 01 2014

NOTE: "FAIR" INDICATES FEW OR NO CLOUDS BELOW 12000 FEET WITH NO
SIGNIFICANT WEATHER AND/OR OBSTRUCTIONS TO VISIBILITY.

COZ001>005-013-030-031-020200-
...NORTHWEST COLORADO...

CITY           SKY/WX    TMP DP  RH WIND       PRES   REMARKS
CRAIG          CLEAR     70  38  31 W10       30.12S
HAYDEN         CLEAR     68  32  26 W10       30.14S
MEEKER         CLEAR     73  30  20 NW8       30.14R
MOUNT WERNER   NOT AVBL
STEAMBOAT SPGS CLEAR     67  34  29 W9        30.17R
WALDEN         PTCLDY    57  32  38 W9        30.23S
$$

COZ006>008-011-020200-
...WEST CENTRAL VALLEYS...

CITY           SKY/WX    TMP DP  RH WIND       PRES   REMARKS
GRAND JUNCTION CLEAR     81  34  18 CALM      29.99S
MONTROSE       CLEAR     79  38  22 N9        30.09R
EAGLE          PTCLDY    73  36  25 SW13G23   30.14R
RIFLE          PTCLDY    78  34  20 NW9       30.05R
DELTA          CLEAR     85  30  13 NW12G21   30.04R
NUCLA          NOT AVBL
$$

COZ017>023-064>068-020200-
...SOUTHWEST COLORADO...

CITY           SKY/WX    TMP DP  RH WIND       PRES   REMARKS
DURANGO        CLEAR     80  30  16 W17       30.12S
CORTEZ         CLEAR     84  28  13 W8        30.07S
PAGOSA SPRINGS CLEAR     77  22  12 SW13      30.19S
TELLURIDE      CLEAR     66  27  22 W8        30.33S
WOLF CREEK PAS PTCLDY    54  28  37 SW20G29   30.51S
$$

COZ009-010-012-014-032>034-037-058>063-020200-
...CENTRAL COLORADO...

CITY           SKY/WX    TMP DP  RH WIND       PRES   REMARKS
ASPEN          PTCLDY    68  30  24 N9G17     30.21R
BUENA VISTA    CLEAR     71  19  14 W15G25    30.20R
COPPER MTN     CLEAR     54  30  40 W16G25    30.50R
BERTHOUD PASS  MOCLDY    41  41 100 NW20G25   30.52R
COTTONWOOD PAS CLEAR     64  18  16 NW10G29   30.34R
GUNNISON       CLEAR     72  30  21 W10G18    30.22R
KREMMLING      CLEAR     70  27  19 NW13      30.20R
LEADVILLE      CLEAR     59  29  31 NW9       30.34R
SALIDA         CLEAR     76  26  16 W10G21    30.23R
SUNLIGHT       CLEAR     55  36  47 CALM      30.45S
WILKERSON PASS NOT AVBL
$$

COZ069>075-020200-
...SAN LUIS VALLEY/SANGRE DE CRISTO MOUNTAINS...

CITY           SKY/WX    TMP DP  RH WIND       PRES   REMARKS
ALAMOSA        PTCLDY    74  33  22 SW7       30.12S
LA VETA PASS   NOT AVBL
SAGUACHE       NOT AVBL
$$

COZ035-036-038>040-020200-
...NORTHERN COLORADO FRONT RANGE...

CITY           SKY/WX    TMP DP  RH WIND       PRES   REMARKS
DENVER INTL AP PTCLDY    72  44  36 NE8       30.02R
DMNS CITY PARK   N/A     75  39  27 NE5       30.01R
AURORA         PTCLDY    73  42  31 E6        30.04R
FRONT RANGE AP NOT AVBL
ERIE MUNI ARPT CLEAR     75  40  28 E7        30.00R
BOULDER MUN AP CLEAR     73  43  33 N3        30.01R
CENTENNIAL     PTCLDY    74  45  35 SE6       30.04R
BROOMFIELD     PTCLDY    75  41  29 NE8       30.03R
FORT COLLINS   CLEAR     75  46  35 SE3       29.99R
LONGMONT       CLEAR     76  45  32 NE3       30.01R
$$

COZ041-046-047-076>085-087-088-020200-
...PIKES PEAK/PALMER DIVIDE AND SOUTHERN FOOTHILLS...

CITY           SKY/WX    TMP DP  RH WIND       PRES   REMARKS
COLO. SPRINGS  PTCLDY    73  45  36 E10       30.08R
A. F. ACADEMY  CLEAR     70  47  42 E9        30.09R
ELLICOTT       PTCLDY    73  43  33 E8        30.06R
FALCON         PTCLDY    65  47  51 E7        30.13R
FORT CARSON    PTCLDY    73  46  37 NE8       30.05R
LIMON          CLEAR     73  43  33 SE6       30.02S
MONUMENT HILL  CLEAR     64  46  52 SE6       30.13R
TRINIDAD       PTCLDY    81  42  25 N6        29.95S
$$

COZ042>045-048>051-090-091-020200-
...NORTHEAST COLORADO...

CITY           SKY/WX    TMP DP  RH WIND       PRES   REMARKS
GREELEY ARPT   CLEAR     77  45  31 SE5       29.99R
AKRON          CLEAR     76  43  30 MISG      29.99R
BURLINGTON     PTCLDY    73  47  39 SE8       29.96S
WRAY             N/A     74  51  44 SE6       29.93S
STERLING       CLEAR     75  54  46 CALM      29.93R
HOLYOKE        CLEAR     73  55  53 SE6       29.93R
FORT MORGAN    CLEAR     72  49  44 CALM      29.98R
$$

COZ086-089-092>099-020200-
...SOUTHEAST COLORADO...

CITY           SKY/WX    TMP DP  RH WIND       PRES   REMARKS
PUEBLO         PTCLDY    84  43  23 E17       29.91R
LA JUNTA       CLEAR     83  46  27 SE15      29.89S
LAMAR          CLEAR     81  49  32 SE15      29.89R
SPRINGFIELD      N/A     77  52  41 SE13      29.94S
$$


USA.gov is the U.S. government's official web portal to all federal, state and local government web resources and services.